GW5333 Weather Reports


time (UTC)temp
F
wind
direction
speed
knots
gust
knots
rain 1hr
in
rain 24hr
in
rain mn
in
humidity
%
barometer
mb
20260505224229 91 160 0.0 0.0 0.00 0.00 0.00 54 1004.4
20260505223727 92 170 0.0 0.0 0.00 0.00 0.00 54 1004.4
20260505223223 92 176 0.0 0.0 0.00 0.00 0.00 53 1004.4
20260505222719 93 158 0.0 0.0 0.00 0.00 0.00 53 1004.4
20260505222215 93 129 0.0 0.0 0.00 0.00 0.00 53 1004.4
20260505221713 93 165 0.0 0.0 0.00 0.00 0.00 53 1004.4
20260505221209 94 177 0.0 0.0 0.00 0.00 0.00 51 1004.1
20260505220706 94 213 0.0 0.0 0.00 0.00 0.00 51 1004.4
20260505220204 94 197 0.0 0.0 0.00 0.00 0.00 51 1004.4
20260505215701 94 165 0.0 0.0 0.00 0.00 0.00 49 1004.4
20260505215159 93 185 0.0 0.0 0.00 0.00 0.00 50 1004.4
20260505214657 93 145 0.0 0.0 0.00 0.00 0.00 50 1004.4
20260505214154 93 198 0.0 0.0 0.00 0.00 0.00 53 1004.4
20260505213651 93 243 0.0 0.0 0.00 0.00 0.00 53 1004.9
20260505213148 94 233 0.0 0.0 0.00 0.00 0.00 51 1004.4
20260505212644 93 213 0.0 0.0 0.00 0.00 0.00 51 1004.4
20260505212142 94 136 0.0 0.0 0.00 0.00 0.00 52 1004.9
20260505211638 94 252 0.0 0.0 0.00 0.00 0.00 51 1004.9
20260505211136 94 229 0.0 0.0 0.00 0.00 0.00 51 1004.9
20260505210632 93 195 0.0 0.0 0.00 0.00 0.00 51 1004.9
20260505210129 93 228 0.0 0.0 0.00 0.00 0.00 52 1004.9
20260505205627 93 245 0.0 0.0 0.00 0.00 0.00 52 1004.9
20260505205125 93 201 0.0 0.0 0.00 0.00 0.00 51 1005.2
20260505204621 92 202 0.0 0.0 0.00 0.00 0.00 52 1005.2
20260505204119 92 254 0.0 0.0 0.00 0.00 0.00 54 1005.2
20260505203615 92 131 0.0 0.0 0.00 0.00 0.00 53 1005.6
20260505203113 92 272 0.0 0.0 0.00 0.00 0.00 54 1005.6
20260505202608 92 214 0.0 0.0 0.00 0.00 0.00 53 1005.2
20260505202104 92 139 0.0 0.0 0.00 0.00 0.00 53 1005.6
20260505201601 92 176 0.0 0.0 0.00 0.00 0.00 53 1005.6
20260505201059 91 209 0.0 0.0 0.00 0.00 0.00 55 1005.2
20260505200556 91 204 0.0 0.0 0.00 0.00 0.00 56 1005.6
20260505200053 91 177 0.0 0.0 0.00 0.00 0.00 56 1005.6
20260505195549 90 171 0.0 0.0 0.00 0.00 0.00 56 1005.6
20260505195047 90 228 0.0 0.0 0.00 0.00 0.00 57 1005.6
20260505194544 89 121 0.0 0.0 0.00 0.00 0.00 58 1005.6
20260505194039 89 118 0.0 0.0 0.00 0.00 0.00 59 1005.6
20260505193537 88 196 0.0 0.0 0.00 0.00 0.00 60 1005.9
20260505193034 88 169 0.0 2.6 0.00 0.00 0.00 60 1005.6
20260505192532 88 161 0.0 0.0 0.00 0.00 0.00 62 1005.9
20260505192030 88 137 0.0 0.0 0.00 0.00 0.00 62 1005.6
20260505191528 87 172 0.0 0.0 0.00 0.00 0.00 62 1005.6
20260505191025 87 212 0.0 0.0 0.00 0.00 0.00 62 1005.6
20260505190520 87 173 0.0 0.0 0.00 0.00 0.00 61 1005.6
20260505190016 86 204 0.0 0.0 0.00 0.00 0.00 62 1005.9
20260505185513 86 112 0.0 0.0 0.00 0.00 0.00 62 1005.9
20260505185009 86 140 0.0 0.0 0.00 0.00 0.00 64 1006.2
20260505184506 86 193 0.0 0.0 0.00 0.00 0.00 64 1006.2
20260505184003 86 168 0.0 0.0 0.00 0.00 0.00 64 1005.9
20260505183500 86 156 0.0 0.0 0.00 0.00 0.00 64 1005.9
20260505182956 86 149 0.0 0.0 0.00 0.00 0.00 65 1005.9
20260505182454 86 200 0.0 0.0 0.00 0.00 0.00 64 1005.6
20260505181950 86 173 0.0 0.0 0.00 0.00 0.00 64 1006.2
20260505181447 86 150 0.0 0.0 0.00 0.00 0.00 64 1005.9
20260505180944 86 160 0.0 0.0 0.00 0.00 0.00 63 1005.9
20260505180440 86 184 0.0 0.0 0.00 0.00 0.00 62 1006.2
20260505175937 86 172 0.0 0.0 0.00 0.00 0.00 63 1005.9
20260505175433 85 164 0.0 0.0 0.00 0.00 0.00 64 1006.2
20260505174930 85 140 0.0 0.0 0.00 0.00 0.00 64 1005.6
20260505174427 85 200 0.0 0.0 0.00 0.00 0.00 64 1006.2
20260505173923 85 210 0.0 0.0 0.00 0.00 0.00 63 1005.9
20260505173420 84 148 0.0 0.0 0.00 0.00 0.00 64 1005.9
20260505172917 84 179 0.0 0.0 0.00 0.00 0.00 64 1006.2
20260505172415 84 135 0.0 0.0 0.00 0.00 0.00 65 1006.2
20260505171914 84 184 0.0 0.0 0.00 0.00 0.00 65 1005.9
20260505171411 84 180 0.0 0.0 0.00 0.00 0.00 66 1006.2
20260505170908 83 181 0.0 0.0 0.00 0.00 0.00 66 1006.2
20260505170405 83 161 0.0 0.0 0.00 0.00 0.00 66 1006.2
20260505165900 83 193 0.0 0.0 0.00 0.00 0.00 66 1006.2
20260505165356 83 191 0.0 2.6 0.00 0.00 0.00 66 1005.9
20260505164852 83 195 0.0 0.0 0.00 0.00 0.00 66 1006.2
20260505164348 83 152 0.0 0.0 0.00 0.00 0.00 67 1005.9
20260505163847 83 144 2.6 6.1 0.00 0.00 0.00 66 1005.9
20260505163345 83 160 0.0 0.0 0.00 0.00 0.00 67 1005.9
20260505162843 83 210 0.0 0.0 0.00 0.00 0.00 67 1005.9
20260505162339 83 215 0.0 0.0 0.00 0.00 0.00 67 1005.9
20260505161837 83 221 0.0 0.0 0.00 0.00 0.00 65 1005.9
20260505161334 82 155 0.0 0.0 0.00 0.00 0.00 67 1005.9
20260505160831 82 168 0.0 0.0 0.00 0.00 0.00 66 1005.6
20260505160329 82 170 0.9 6.1 0.00 0.00 0.00 67 1005.9
20260505153308 81 173 0.0 0.0 0.00 0.00 0.00 70 1005.9
20260505152805 80 143 0.0 0.0 0.00 0.00 0.00 70 1005.9
20260505152304 80 178 0.0 0.0 0.00 0.00 0.00 69 1005.9
20260505151755 79 166 0.0 0.0 0.00 0.00 0.00 70 1005.9
20260505151253 78 136 0.0 0.0 0.00 0.00 0.00 71 1006.2
20260505150750 78 185 0.0 0.0 0.00 0.00 0.00 73 1005.9
20260505150247 78 162 0.0 0.0 0.00 0.00 0.00 74 1005.9
20260505140217 74 183 0.0 0.0 0.00 0.00 0.00 81 1005.9
20260505130141 73 175 0.0 0.0 0.00 0.00 0.00 82 1005.6
20260505124630 72 194 0.0 0.0 0.00 0.00 0.00 83 1005.9
20260505124127 72 183 0.0 0.0 0.00 0.00 0.00 83 1005.6
20260505123623 72 179 0.0 0.0 0.00 0.00 0.00 83 1005.6
20260505123120 72 150 0.0 0.0 0.00 0.00 0.00 83 1005.2
20260505122617 72 142 0.0 0.0 0.00 0.00 0.00 83 1005.2
20260505122114 72 173 0.0 0.0 0.00 0.00 0.00 83 1005.2
20260505121610 72 155 0.0 0.0 0.00 0.00 0.00 83 1005.2
20260505121107 72 160 0.0 0.0 0.00 0.00 0.00 83 1005.2
20260505120603 72 176 0.0 0.0 0.00 0.00 0.00 83 1005.2
20260505120059 72 164 0.0 0.0 0.00 0.00 0.00 83 1005.2
20260505115554 72 158 0.0 0.0 0.00 0.00 0.00 83 1005.2
20260505115051 72 99 0.0 0.0 0.00 0.00 0.00 83 1005.2
20260505114548 72 171 0.0 0.0 0.00 0.00 0.00 83 1004.9
20260505114044 72 134 0.0 0.0 0.00 0.00 0.00 83 1005.2
20260505113541 72 179 0.0 0.0 0.00 0.00 0.00 83 1005.2
20260505113037 72 131 0.0 0.0 0.00 0.00 0.00 83 1004.9
20260505112529 72 161 0.0 0.0 0.00 0.00 0.00 83 1005.2
20260505112027 72 163 0.0 0.0 0.00 0.00 0.00 83 1004.9
20260505111525 72 186 0.0 0.0 0.00 0.00 0.00 83 1004.9
20260505111022 72 171 0.0 0.0 0.00 0.00 0.00 83 1004.9
20260505110519 72 170 0.0 0.0 0.00 0.00 0.00 83 1004.9
20260505101951 72 156 0.0 0.0 0.00 0.00 0.00 82 1004.9
20260505101449 72 146 0.0 0.0 0.00 0.00 0.00 82 1004.9
20260505100945 72 179 0.9 4.3 0.00 0.00 0.00 82 1005.2
20260505100443 72 208 0.0 0.0 0.00 0.00 0.00 82 1004.9
20260505095939 72 169 0.0 0.0 0.00 0.00 0.00 82 1004.9
20260505095436 72 192 0.0 0.0 0.00 0.00 0.00 82 1005.2
20260505094932 72 168 0.9 2.6 0.00 0.00 0.00 82 1005.2
20260505094429 72 165 0.0 0.0 0.00 0.00 0.00 82 1004.9
20260505093925 72 145 0.0 0.0 0.00 0.00 0.00 82 1005.2
20260505093422 72 152 0.0 0.0 0.00 0.00 0.00 82 1005.2
20260505092919 72 173 0.0 0.0 0.00 0.00 0.00 82 1005.6
20260505092417 72 230 0.0 0.0 0.00 0.00 0.00 82 1005.6
20260505091914 72 66 0.0 0.0 0.00 0.00 0.00 82 1005.2
20260505091412 72 187 0.0 0.0 0.00 0.00 0.00 83 1005.6
20260505090909 72 182 0.0 0.0 0.00 0.00 0.00 83 1005.2
20260505090408 72 163 0.9 4.3 0.00 0.00 0.00 83 1005.6
20260505085904 72 160 0.0 0.0 0.00 0.00 0.00 83 1005.2
20260505085402 72 169 0.0 0.0 0.00 0.00 0.00 83 1005.2
20260505084900 72 201 0.0 0.0 0.00 0.00 0.00 83 1005.2
20260505084358 72 90 0.0 0.0 0.00 0.00 0.00 83 1005.6
20260505083856 72 168 0.0 0.0 0.00 0.00 0.00 83 1005.2
20260505083353 72 163 0.0 0.0 0.00 0.00 0.00 83 1005.2
20260505082849 72 131 0.0 0.0 0.00 0.00 0.00 83 1005.6
20260505082345 72 135 0.0 0.0 0.00 0.00 0.00 83 1005.6
20260505081842 72 170 0.0 0.0 0.00 0.00 0.00 82 1005.6
20260505081339 72 207 0.0 0.0 0.00 0.00 0.00 82 1005.6
20260505080836 72 168 0.0 0.0 0.00 0.00 0.00 82 1005.6
20260505080331 72 175 0.0 0.0 0.00 0.00 0.00 82 1005.6
20260505075827 72 161 0.0 0.0 0.00 0.00 0.00 82 1005.6
20260505075324 72 167 0.0 0.0 0.00 0.00 0.00 82 1005.6
20260505074822 72 176 0.0 0.0 0.00 0.00 0.00 81 1005.6
20260505074319 72 156 2.6 6.1 0.00 0.00 0.00 81 1005.6
20260505073816 73 164 0.0 0.0 0.00 0.00 0.00 81 1005.9
20260505073314 73 159 0.0 0.0 0.00 0.00 0.00 81 1005.9
20260505072811 73 211 0.0 0.0 0.00 0.00 0.00 80 1006.2
20260505072307 73 170 0.0 2.6 0.00 0.00 0.00 80 1006.2
20260505071803 73 196 0.0 0.0 0.00 0.00 0.00 80 1006.2
20260505071259 73 170 7.0 10.4 0.00 0.00 0.00 80 1006.2
20260505070757 73 173 1.7 6.1 0.00 0.00 0.00 79 1006.2
20260505070254 73 136 0.0 0.0 0.00 0.00 0.00 79 1006.2
20260505065748 73 230 0.0 0.0 0.00 0.00 0.00 79 1006.6
20260505065246 73 199 0.0 2.6 0.00 0.00 0.00 79 1006.2
20260505064743 73 180 0.0 0.0 0.00 0.00 0.00 78 1006.6
20260505064240 73 85 0.0 0.0 0.00 0.00 0.00 78 1006.2
20260505063738 73 194 0.0 2.6 0.00 0.00 0.00 78 1006.6
20260505063234 73 176 0.0 0.0 0.00 0.00 0.00 78 1006.6
20260505062730 73 156 0.0 0.0 0.00 0.00 0.00 77 1006.6
20260505062228 73 185 2.6 6.1 0.00 0.00 0.00 77 1006.6
20260505061725 73 137 0.0 0.0 0.00 0.00 0.00 77 1006.6
20260505061223 73 162 0.0 0.0 0.00 0.00 0.00 77 1006.6
20260505060720 73 172 2.6 6.1 0.00 0.00 0.00 77 1006.2
20260505060217 73 196 0.0 0.0 0.00 0.00 0.00 76 1006.2
20260505055712 74 149 0.0 0.0 0.00 0.00 0.00 76 1006.6
20260505055209 74 129 0.9 4.3 0.00 0.00 0.00 76 1006.6
20260505054706 74 131 0.0 0.0 0.00 0.00 0.00 76 1006.9
20260505054204 74 184 0.0 0.0 0.00 0.00 0.00 75 1006.9
20260505053702 74 204 0.0 0.0 0.00 0.00 0.00 75 1006.6
20260505053158 74 183 0.9 2.6 0.00 0.00 0.00 75 1006.9
20260505052655 74 164 0.0 0.0 0.00 0.00 0.00 75 1007.3
20260505052152 74 165 0.0 0.0 0.00 0.00 0.00 74 1006.9
20260505051649 74 168 0.0 0.0 0.00 0.00 0.00 74 1006.9
20260505051147 74 237 0.0 0.0 0.00 0.00 0.00 74 1006.9
20260505050645 74 171 0.0 0.0 0.00 0.00 0.00 74 1007.3
20260505050143 74 144 0.0 0.0 0.00 0.00 0.00 73 1006.9
20260505041613 75 161 0.0 0.0 0.00 0.00 0.00 71 1007.6
20260505041110 75 144 0.0 0.0 0.00 0.00 0.00 71 1007.3
20260505040607 75 166 0.0 0.0 0.00 0.00 0.00 71 1007.6
20260505040104 75 141 0.0 0.0 0.00 0.00 0.00 70 1007.3
20260505035600 75 149 0.0 0.0 0.00 0.00 0.00 70 1007.3
20260505035057 75 154 0.0 2.6 0.00 0.00 0.00 70 1007.3
20260505034553 75 139 0.0 0.0 0.00 0.00 0.00 70 1007.3
20260505034050 75 166 0.0 0.0 0.00 0.00 0.00 70 1007.3
20260505033547 75 132 0.0 0.0 0.00 0.00 0.00 70 1006.9
20260505033045 75 171 0.0 0.0 0.00 0.00 0.00 70 1007.3
20260505032543 75 170 0.0 0.0 0.00 0.00 0.00 70 1007.3
20260505032039 76 147 0.0 0.0 0.00 0.00 0.00 69 1007.3
20260505031537 76 128 0.0 0.0 0.00 0.00 0.00 69 1007.6
20260505031033 76 181 0.0 2.6 0.00 0.00 0.00 69 1007.3
20260505030530 76 217 0.0 2.6 0.00 0.00 0.00 69 1007.3
20260505030026 76 150 0.0 0.0 0.00 0.00 0.00 69 1007.3
20260505025522 76 183 0.0 0.0 0.00 0.00 0.00 69 1007.6
20260505025021 76 135 0.0 0.0 0.00 0.00 0.00 69 1007.3
20260505024517 76 167 0.0 2.6 0.00 0.00 0.00 69 1006.9
20260505024015 76 186 2.6 6.1 0.00 0.00 0.00 68 1007.3
20260505023511 76 168 0.0 0.0 0.00 0.00 0.00 68 1007.3
20260505023009 76 125 0.0 0.0 0.00 0.00 0.00 68 1007.3
20260505022507 76 188 0.0 0.0 0.00 0.00 0.00 68 1007.3
20260505022004 76 171 0.0 0.0 0.00 0.00 0.00 68 1007.3
20260505021500 76 157 0.0 0.0 0.00 0.00 0.00 68 1007.3
20260505020956 77 172 0.0 0.0 0.00 0.00 0.00 67 1007.3
20260505020451 77 160 0.0 0.0 0.00 0.00 0.00 67 1007.3
20260505015948 77 152 0.0 0.0 0.00 0.00 0.00 67 1007.3
20260505015446 77 174 0.9 2.6 0.00 0.00 0.00 67 1007.3
20260505014943 77 185 0.0 0.0 0.00 0.00 0.00 66 1006.9
20260505014439 77 174 0.0 0.0 0.00 0.00 0.00 66 1007.3
20260505013937 77 152 0.9 2.6 0.00 0.00 0.00 66 1007.3
20260505013434 77 157 0.0 0.0 0.00 0.00 0.00 66 1007.3
20260505012931 77 173 0.0 0.0 0.00 0.00 0.00 65 1006.9
20260505012429 77 157 0.0 0.0 0.00 0.00 0.00 65 1006.9
20260505011925 78 163 0.0 0.0 0.00 0.00 0.00 65 1006.9
20260505011422 78 146 0.0 0.0 0.00 0.00 0.00 65 1006.9
20260505010918 78 188 0.0 0.0 0.00 0.00 0.00 65 1007.3
20260505010414 78 156 0.0 0.0 0.00 0.00 0.00 64 1006.9
20260505005910 78 155 0.0 0.0 0.00 0.00 0.00 64 1006.9
20260505005407 78 177 0.0 0.0 0.00 0.00 0.00 64 1006.9
20260505004905 78 165 0.0 0.0 0.00 0.00 0.00 63 1006.9
20260505004401 79 150 0.0 0.0 0.00 0.00 0.00 63 1007.3
20260505003858 79 166 2.6 4.3 0.00 0.00 0.00 63 1007.3
20260505003355 79 161 0.0 0.0 0.00 0.00 0.00 63 1007.3
20260505002852 79 166 0.0 0.0 0.00 0.00 0.00 62 1007.3
20260505002348 80 143 2.6 4.3 0.00 0.00 0.00 62 1007.3
20260505001847 80 180 0.9 4.3 0.00 0.00 0.00 61 1007.3
20260505001344 80 156 0.0 0.0 0.00 0.00 0.00 61 1007.3
20260505000841 80 203 1.7 10.4 0.00 0.00 0.00 61 1007.3
20260505000338 80 153 0.0 0.0 0.00 0.00 0.00 61 1006.9
20260504235835 80 167 0.0 2.6 0.00 0.00 0.00 60 1007.3
20260504235332 80 72 0.0 0.0 0.00 0.00 0.00 59 1007.3
20260504234828 80 138 0.0 0.0 0.00 0.00 0.00 59 1007.6
20260504234326 80 176 0.0 2.6 0.00 0.00 0.00 59 1007.6
20260504233823 80 146 0.9 6.1 0.00 0.00 0.00 59 1007.3
20260504233318 81 167 0.9 4.3 0.00 0.00 0.00 60 1007.6
20260504232815 81 184 0.0 0.0 0.00 0.00 0.00 59 1007.3
20260504232312 81 156 0.0 0.0 0.00 0.00 0.00 59 1007.3
20260504231809 82 195 0.9 4.3 0.00 0.00 0.00 58 1007.3
20260504231306 82 161 0.0 2.6 0.00 0.00 0.00 58 1007.6
20260504230802 82 184 0.0 0.0 0.00 0.00 0.00 57 1007.6
20260504230300 82 170 2.6 6.1 0.00 0.00 0.00 57 1007.6
20260504225758 82 172 2.6 6.1 0.00 0.00 0.00 57 1007.6
20260504225254 82 178 6.1 8.7 0.00 0.00 0.00 56 1007.9
20260504224751 82 157 3.5 6.1 0.00 0.00 0.00 56 1007.6